St. James, MN

6:29 PM CDT on October 17, 2019 (GMT -0500)
Saint James Municipal

Weather History for KJYG - June, 2019

Change the Weather History Date:

Friday, June 7, 2019

  Actual Average Record
Temperature  
Mean Temperature 78 °F -  
Max Temperature 91 °F 80 °F 98 °F (2011)
Min Temperature 66 °F 56 °F 41 °F (1998)
Cooling Degree Days 14    
Growing Degree Days 28 (Base 50)    
Moisture  
Dew Point 58 °F    
Average Humidity 48    
Maximum Humidity 83    
Minimum Humidity 29    
Precipitation  
Precipitation 0.00 in - - ()
Sea Level Pressure  
Sea Level Pressure 29.87 in    
Wind  
Wind Speed 10 mph (SSE)    
Max Wind Speed 17 mph    
Max Gust Speed 25 mph    
Visibility 10 miles    
Events      
Averages and records for this station are not official NWS values.
T = Trace of Precipitation, MM = Missing Value Source: NWS Daily Summary

Daily Weather History Graph

Daily Weather History Graph

Search for Another Location

Airport or City:

Astronomy

Jun. 07, 2019 Rise Set
Actual Time 5:36 AM CDT 8:58 PM CDT
Civil Twilight 5:00 AM CDT 9:34 PM CDT
Nautical Twilight 4:13 AM CDT 10:21 PM CDT
Astronomical Twilight 3:15 AM CDT 11:19 PM CDT
Moon 9:56 AM CDT (6/7) 12:14 AM CDT (6/7)
Length of Visible Light 16h 34m
Length of Day
15h 22m
Waxing Crescent, 22% of the Moon is Illuminated
Jun 7
Waxing Crescent
Jun 10
First Quarter
Jun 17
Full
Jun 25
Last Quarter
Jul 2
New

Hourly Weather History & Observations

Time (CDT) Temp. Heat Index Dew Point Humidity Pressure Visibility Wind Dir Wind Speed Gust Speed Precip Events Conditions
12:21 AM 73.4 °F - 55.4 °F 53% 29.86 in 10.0 mi SE 8.1 mph - N/A   Clear
12:37 AM 73.4 °F - 55.4 °F 53% 29.86 in 10.0 mi SE 8.1 mph - N/A   Clear
12:55 AM 73.4 °F - 55.4 °F 53% 29.86 in - SE 5.8 mph - N/A   Clear
1:23 AM 71.6 °F - 55.4 °F 57% 29.86 in 10.0 mi SE 8.1 mph - N/A   Clear
1:38 AM 73.4 °F - 55.4 °F 53% 29.86 in 10.0 mi SE 8.1 mph - N/A   Clear
1:55 AM 71.6 °F - 55.4 °F 57% 29.86 in 10.0 mi SSE 9.2 mph - N/A   Clear
1:56 AM 71.6 °F - 55.4 °F 57% 29.86 in 10.0 mi SSE 9.2 mph - N/A   Clear
2:24 AM 71.6 °F - 55.4 °F 57% 29.86 in 10.0 mi SSE 9.2 mph - N/A   Clear
2:40 AM 71.6 °F - 57.2 °F 60% 29.86 in 10.0 mi SSE 9.2 mph - N/A   Clear
2:55 AM 71.6 °F - 57.2 °F 60% 29.86 in 10.0 mi SSE 8.1 mph - N/A   Scattered Clouds
3:14 AM 71.6 °F - 57.2 °F 60% 29.87 in 10.0 mi SSE 6.9 mph - N/A   Scattered Clouds
3:26 AM 69.8 °F - 57.2 °F 64% 29.86 in 10.0 mi SSE 8.1 mph - N/A   Clear
3:41 AM 69.8 °F - 57.2 °F 64% 29.87 in 10.0 mi SSE 6.9 mph - N/A   Clear
3:56 AM 69.8 °F - 57.2 °F 64% 29.87 in 10.0 mi SSE 5.8 mph - N/A   Clear
4:15 AM 68.0 °F - 57.2 °F 68% 29.87 in 10.0 mi SSE 5.8 mph - N/A   Clear
4:43 AM 68.0 °F - 59.0 °F 73% 29.87 in 10.0 mi SSE 6.9 mph - N/A   Clear
4:58 AM 66.2 °F - 59.0 °F 78% 29.87 in 10.0 mi SE 5.8 mph - N/A   Clear
5:15 AM 66.2 °F - 59.0 °F 78% 29.88 in 10.0 mi SSE 6.9 mph - N/A   Clear
5:16 AM 66.2 °F - 59.0 °F 78% 29.88 in 10.0 mi SSE 6.9 mph - N/A   Clear
5:39 AM 66.2 °F - 59.0 °F 78% 29.88 in - SSE 5.8 mph - N/A   Unknown
5:55 AM 66.2 °F - 60.8 °F 83% 29.89 in 10.0 mi South 5.8 mph - N/A   Clear
6:24 AM 69.8 °F - 60.8 °F 73% 29.89 in 10.0 mi South 8.1 mph - N/A   Clear
6:39 AM 69.8 °F - 60.8 °F 73% 29.90 in 10.0 mi South 8.1 mph - N/A   Clear
6:55 AM 71.6 °F - 62.6 °F 73% 29.90 in 10.0 mi SSE 9.2 mph - N/A   Clear
6:56 AM 71.6 °F - 62.6 °F 73% 29.90 in 10.0 mi SSE 8.1 mph - N/A   Clear
7:25 AM 73.4 °F - 64.4 °F 73% 29.90 in 10.0 mi SSE 9.2 mph - N/A   Clear
7:41 AM 73.4 °F - 64.4 °F 73% 29.90 in 10.0 mi SSE 9.2 mph - N/A   Clear
7:56 AM 75.2 °F - 64.4 °F 69% 29.90 in 10.0 mi SSE 9.2 mph - N/A   Clear
8:16 AM 78.8 °F - 66.2 °F 65% 29.90 in 10.0 mi SSE 10.4 mph 16.1 mph N/A   Clear
8:42 AM 80.6 °F 82.7 °F 66.2 °F 61% 29.90 in 10.0 mi South 16.1 mph 19.6 mph N/A   Clear
8:58 AM 80.6 °F 82.3 °F 64.4 °F 58% 29.90 in 10.0 mi South 13.8 mph - N/A   Clear
9:15 AM 82.4 °F 83.9 °F 64.4 °F 54% 29.90 in 10.0 mi South 16.1 mph - N/A   Clear
9:44 AM 82.4 °F 83.9 °F 64.4 °F 54% 29.90 in 10.0 mi South 16.1 mph 20.7 mph N/A   Clear
9:59 AM 84.2 °F 85.6 °F 64.4 °F 51% 29.90 in 10.0 mi SSE 16.1 mph - N/A   Clear
10:15 AM 84.2 °F 85.6 °F 64.4 °F 51% 29.90 in 10.0 mi South 15.0 mph 20.7 mph N/A   Clear
10:45 AM 84.2 °F 85.6 °F 64.4 °F 51% 29.90 in - South 13.8 mph 17.3 mph N/A   Clear
11:00 AM 86.0 °F 87.3 °F 64.4 °F 48% 29.90 in 10.0 mi South 12.7 mph - N/A   Clear
11:16 AM 86.0 °F 86.6 °F 62.6 °F 45% 29.90 in 10.0 mi South 11.5 mph - N/A   Clear
11:35 AM 87.8 °F 87.6 °F 60.8 °F 40% 29.90 in 10.0 mi South 13.8 mph 21.9 mph N/A   Clear
12:02 PM 87.8 °F 88.5 °F 62.6 °F 43% 29.90 in 10.0 mi SSE 13.8 mph 19.6 mph N/A   Clear
12:17 PM 89.6 °F 89.5 °F 60.8 °F 38% 29.89 in 10.0 mi SSE 17.3 mph - N/A   Clear
12:35 PM 89.6 °F 89.5 °F 60.8 °F 38% 29.89 in 10.0 mi SSE 10.4 mph 21.9 mph N/A   Clear
12:36 PM 89.6 °F 89.5 °F 60.8 °F 38% 29.89 in 10.0 mi South 9.2 mph 21.9 mph N/A   Clear
1:03 PM 89.6 °F 88.9 °F 59.0 °F 36% 29.89 in 10.0 mi South 15.0 mph 19.6 mph N/A   Scattered Clouds
1:19 PM 89.6 °F 88.9 °F 59.0 °F 36% 29.88 in 10.0 mi SSE 15.0 mph 20.7 mph N/A   Clear
1:35 PM 91.4 °F 90.7 °F 59.0 °F 34% 29.88 in 10.0 mi SSE 13.8 mph 19.6 mph N/A   Clear
1:54 PM 91.4 °F 90.7 °F 59.0 °F 34% 29.88 in 10.0 mi South 13.8 mph 21.9 mph N/A   Clear
2:05 PM 89.6 °F 88.9 °F 59.0 °F 36% 29.88 in 10.0 mi SSE 13.8 mph 18.4 mph N/A   Clear
2:20 PM 91.4 °F 90.7 °F 59.0 °F 34% 29.87 in 10.0 mi SSE 13.8 mph 20.7 mph N/A   Scattered Clouds
2:36 PM 91.4 °F 90.7 °F 59.0 °F 34% 29.87 in 10.0 mi SE 15.0 mph - N/A   Scattered Clouds
2:55 PM 91.4 °F 90.7 °F 59.0 °F 34% 29.87 in 10.0 mi SE 13.8 mph 21.9 mph N/A   Clear
3:22 PM 91.4 °F 89.9 °F 57.2 °F 31% 29.86 in 10.0 mi SE 16.1 mph 23.0 mph N/A   Clear
3:37 PM 91.4 °F 89.9 °F 57.2 °F 31% 29.86 in 10.0 mi SE 9.2 mph 21.9 mph N/A   Clear
3:55 PM 91.4 °F 89.9 °F 57.2 °F 31% 29.86 in 10.0 mi SSE 16.1 mph 25.3 mph N/A   Clear
3:56 PM 91.4 °F 89.4 °F 55.4 °F 29% 29.86 in 10.0 mi SSE 13.8 mph 25.3 mph N/A   Clear
4:23 PM 91.4 °F 89.9 °F 57.2 °F 31% 29.86 in 10.0 mi SE 16.1 mph 20.7 mph N/A   Scattered Clouds
4:39 PM 91.4 °F 89.4 °F 55.4 °F 29% 29.85 in 10.0 mi SSE 16.1 mph 21.9 mph N/A   Clear
4:55 PM 91.4 °F 89.4 °F 55.4 °F 29% 29.85 in 10.0 mi SSE 12.7 mph 21.9 mph N/A   Clear
5:25 PM 89.6 °F 87.7 °F 55.4 °F 31% 29.85 in 10.0 mi South 11.5 mph 21.9 mph N/A   Clear
5:40 PM 91.4 °F 89.4 °F 55.4 °F 29% 29.85 in 10.0 mi SSE 13.8 mph - N/A   Clear
5:56 PM 91.4 °F 89.4 °F 55.4 °F 29% 29.85 in 10.0 mi ESE 12.7 mph 20.7 mph N/A   Scattered Clouds
6:15 PM 91.4 °F 89.4 °F 55.4 °F 29% 29.85 in 10.0 mi SE 12.7 mph - N/A   Scattered Clouds
6:42 PM 91.4 °F 89.4 °F 55.4 °F 29% 29.85 in 10.0 mi SE 11.5 mph 17.3 mph N/A   Clear
6:57 PM 89.6 °F 87.3 °F 53.6 °F 29% 29.85 in 10.0 mi SE 16.1 mph 21.9 mph N/A   Scattered Clouds
7:15 PM 89.6 °F 87.3 °F 53.6 °F 29% 29.84 in 10.0 mi SSE 11.5 mph 18.4 mph N/A   Scattered Clouds
7:16 PM 89.6 °F 87.3 °F 53.6 °F 29% 29.84 in 10.0 mi SE 11.5 mph 18.4 mph N/A   Clear
7:43 PM 89.6 °F 87.7 °F 55.4 °F 31% 29.84 in 10.0 mi SE 13.8 mph - N/A   Clear
7:59 PM 87.8 °F 86.1 °F 55.4 °F 33% 29.84 in 10.0 mi SE 13.8 mph 19.6 mph N/A   Clear
8:15 PM 87.8 °F 86.1 °F 55.4 °F 33% 29.84 in 10.0 mi SE 11.5 mph - N/A   Clear
8:34 PM 86.0 °F 84.5 °F 55.4 °F 35% 29.85 in 10.0 mi SE 15.0 mph - N/A   Clear
8:45 PM 84.2 °F 83.0 °F 55.4 °F 37% 29.85 in 10.0 mi SE 15.0 mph - N/A   Clear
9:00 PM 82.4 °F 81.7 °F 55.4 °F 39% 29.85 in 10.0 mi SE 12.7 mph 18.4 mph N/A   Clear
9:16 PM 80.6 °F 80.5 °F 55.4 °F 42% 29.85 in 10.0 mi SE 11.5 mph - N/A   Clear
9:35 PM 80.6 °F 80.5 °F 55.4 °F 42% 29.86 in 10.0 mi SE 12.7 mph - N/A   Clear
10:02 PM 80.6 °F 80.5 °F 55.4 °F 42% 29.87 in 10.0 mi SE 13.8 mph - N/A   Clear
10:17 PM 78.8 °F - 55.4 °F 44% 29.87 in 10.0 mi SE 12.7 mph 18.4 mph N/A   Clear
10:35 PM 78.8 °F - 55.4 °F 44% 29.88 in 10.0 mi SE 15.0 mph - N/A   Clear
10:36 PM 78.8 °F - 55.4 °F 44% 29.88 in 10.0 mi SE 15.0 mph - N/A   Clear
11:03 PM 78.8 °F - 55.4 °F 44% 29.89 in 10.0 mi SE 12.7 mph - N/A   Clear
11:19 PM 77.0 °F - 55.4 °F 47% 29.89 in 10.0 mi SE 15.0 mph - N/A   Clear
11:35 PM 77.0 °F - 55.4 °F 47% 29.89 in 10.0 mi SE 11.5 mph 18.4 mph N/A   Clear